NQ9B Weather Reports


Display with metric or nautical units.
time (UTC)temp
F
wind
direction
speed
MPH
gust
MPH
rain 1hr
in
rain 24hr
in
rain mn
in
humidity
%
barometer
mb
20260507015033 68 0 0.0 4.0 0.00 0.02 0.02 70 1013.0
20260507014547 68 36 1.0 4.0 0.00 0.02 0.02 70 1012.8
20260507014032 68 5 1.0 4.0 0.00 0.02 0.02 70 1012.8
20260507013532 68 0 0.0 4.0 0.00 0.02 0.02 70 1012.5
20260507013046 69 81 1.0 4.0 0.00 0.02 0.02 69 1012.2
20260507012535 69 348 0.0 4.0 0.00 0.02 0.02 70 1012.4
20260507012032 69 0 0.0 3.0 0.00 0.02 0.02 70 1012.5
20260507011545 69 0 0.0 4.0 0.00 0.02 0.02 69 1012.3
20260507011032 70 230 0.0 4.0 0.00 0.02 0.02 69 1012.4
20260507010533 70 0 0.0 4.0 0.00 0.02 0.02 69 1012.4
20260507010037 70 0 0.0 4.0 0.00 0.02 0.02 68 1012.3
20260507005534 71 0 1.0 4.0 0.00 0.02 0.02 68 1012.4
20260507005033 71 11 1.0 7.0 0.00 0.02 0.02 67 1012.1
20260507004546 72 26 1.0 7.0 0.00 0.02 0.02 67 1011.9
20260507004033 72 5 0.0 6.0 0.00 0.02 0.02 67 1011.8
20260507003533 72 57 0.0 4.0 0.00 0.02 0.02 67 1012.0
20260507003039 73 5 0.0 3.0 0.00 0.02 0.02 66 1011.9
20260507002533 73 0 0.0 6.0 0.00 0.02 0.02 66 1011.8
20260507002034 73 340 0.0 6.0 0.00 0.02 0.02 66 1011.7
20260507001538 74 0 0.0 3.0 0.00 0.02 0.02 66 1011.7
20260507001033 74 0 0.0 6.0 0.00 0.02 0.02 66 1011.8
20260507000533 74 167 0.0 6.0 0.00 0.02 0.02 66 1011.8
20260507000042 74 0 1.0 6.0 0.00 0.02 0.02 65 1011.5
20260506235534 75 0 0.0 4.0 0.00 0.02 0.02 65 1011.5
20260506235035 75 0 0.0 4.0 0.00 0.02 0.02 65 1011.3
20260506234545 75 0 1.0 4.0 0.00 0.02 0.02 64 1011.1
20260506234034 76 0 0.0 4.0 0.00 0.02 0.02 64 1011.0
20260506233533 76 0 0.0 5.0 0.00 0.02 0.02 63 1011.0
20260506233045 77 294 0.0 5.0 0.00 0.02 0.02 63 1011.0
20260506232532 78 163 0.0 3.0 0.00 0.02 0.02 62 1010.9
20260506232034 78 0 0.0 6.0 0.00 0.02 0.02 63 1010.8
20260506231551 79 310 0.0 6.0 0.00 0.02 0.02 63 1010.6
20260506231033 80 155 1.0 7.0 0.00 0.02 0.02 63 1010.6
20260506230532 80 73 0.0 7.0 0.00 0.02 0.02 64 1010.6
20260506230053 81 0 1.0 7.0 0.00 0.02 0.02 64 1010.4
20260506225535 81 329 0.0 8.0 0.00 0.02 0.02 64 1010.3
20260506225033 81 286 1.0 8.0 0.00 0.02 0.02 64 1010.3
20260506224542 81 88 0.0 4.0 0.00 0.02 0.02 64 1010.3
20260506224034 81 153 0.0 8.0 0.00 0.02 0.02 65 1010.4
20260506223534 81 171 1.0 8.0 0.00 0.02 0.02 65 1010.3
20260506223052 81 105 1.0 6.0 0.00 0.02 0.02 65 1010.2
20260506222532 81 74 0.0 4.0 0.00 0.02 0.02 65 1010.2
20260506222032 82 0 1.0 4.0 0.00 0.02 0.02 64 1010.1
20260506221546 82 0 0.0 5.0 0.00 0.02 0.02 64 1010.0
20260506221036 82 0 0.0 5.0 0.00 0.02 0.02 64 1010.0
20260506220537 82 157 0.0 5.0 0.00 0.02 0.02 64 1010.1
20260506220045 82 80 0.0 4.0 0.00 0.02 0.02 64 1010.1
20260506215539 82 301 1.0 5.0 0.00 0.02 0.02 63 1009.9
20260506215033 83 131 1.0 5.0 0.00 0.02 0.02 63 1009.8
20260506214544 85 0 1.0 5.0 0.00 0.02 0.02 60 1010.0
20260506214033 86 0 0.0 1.0 0.00 0.02 0.02 59 1009.7
20260506213534 86 0 0.0 0.0 0.00 0.02 0.02 61 1009.6
20260506213104 86 0 0.0 0.0 0.00 0.02 0.02 60 1009.7
20260506212533 86 0 0.0 0.0 0.00 0.02 0.02 58 1009.8
20260506212038 86 0 0.0 0.0 0.00 0.02 0.02 58 1009.9
20260506211554 86 0 0.0 0.0 0.00 0.02 0.02 60 1009.8
20260506211032 86 0 0.0 0.0 0.00 0.02 0.02 59 1009.8
20260506210533 87 0 0.0 0.0 0.00 0.02 0.02 59 1009.9
20260506210047 87 0 0.0 0.0 0.00 0.02 0.02 58 1010.0
20260506205533 85 0 0.0 0.0 0.00 0.02 0.02 65 1010.0
20260506205033 85 0 0.0 0.0 0.00 0.02 0.02 64 1010.1
20260506204550 85 0 0.0 1.0 0.00 0.02 0.02 61 1010.2
20260506204032 86 0 0.0 1.0 0.00 0.02 0.02 63 1010.2
20260506203532 85 0 0.0 0.0 0.00 0.02 0.02 61 1010.1
20260506203047 85 0 0.0 0.0 0.00 0.02 0.02 62 1010.3
20260506202536 86 0 0.0 0.0 0.00 0.02 0.02 61 1010.2
20260506202035 86 0 0.0 0.0 0.00 0.02 0.02 61 1010.3
20260506201600 86 0 0.0 3.0 0.00 0.02 0.02 63 1010.3
20260506201034 85 0 0.0 3.0 0.00 0.02 0.02 61 1010.4
20260506200532 85 0 0.0 0.0 0.00 0.02 0.02 64 1010.6
20260506200043 86 0 0.0 0.0 0.00 0.02 0.02 62 1010.7
20260506195533 85 0 0.0 0.0 0.00 0.02 0.02 66 1010.7
20260506195033 83 0 0.0 0.0 0.00 0.02 0.02 66 1010.7
20260506194558 83 0 0.0 0.0 0.00 0.02 0.02 66 1010.8
20260506194034 84 0 0.0 0.0 0.00 0.02 0.02 66 1010.8
20260506193533 84 0 0.0 0.0 0.00 0.02 0.02 66 1010.8
20260506193046 83 0 0.0 0.0 0.00 0.02 0.02 65 1010.8
20260506192533 83 0 0.0 0.0 0.00 0.02 0.02 67 1010.8
20260506192033 84 0 0.0 0.0 0.00 0.02 0.02 66 1011.0
20260506191550 85 0 0.0 0.0 0.00 0.02 0.02 65 1010.9
20260506191034 85 0 0.0 0.0 0.00 0.02 0.02 69 1010.9
20260506190533 84 0 0.0 0.0 0.00 0.02 0.02 68 1010.9
20260506190044 84 0 0.0 0.0 0.00 0.02 0.02 69 1010.9
20260506185532 83 0 0.0 0.0 0.00 0.02 0.02 69 1011.1
20260506185036 83 0 0.0 0.0 0.00 0.02 0.02 68 1011.2
20260506184546 82 0 0.0 0.0 0.00 0.02 0.02 70 1011.2
20260506184034 83 0 0.0 0.0 0.00 0.02 0.02 70 1011.3
20260506183534 82 0 0.0 0.0 0.00 0.02 0.02 71 1011.4
20260506183052 81 0 0.0 0.0 0.00 0.02 0.02 72 1011.5
20260506182532 81 0 0.0 0.0 0.00 0.02 0.02 73 1011.6
20260506182032 81 0 0.0 0.0 0.00 0.02 0.02 73 1011.7
20260506181545 81 0 0.0 0.0 0.00 0.02 0.02 73 1011.7
20260506181033 80 0 0.0 0.0 0.00 0.02 0.02 72 1011.7
20260506180535 80 0 0.0 1.0 0.00 0.02 0.02 74 1011.8
20260506180050 80 0 0.0 1.0 0.00 0.02 0.02 73 1011.9
20260506175533 80 0 0.0 0.0 0.00 0.02 0.02 74 1011.8
20260506175032 80 0 0.0 0.0 0.00 0.02 0.02 75 1011.9
20260506174546 80 0 0.0 0.0 0.00 0.02 0.02 74 1011.9
20260506174032 80 0 0.0 0.0 0.00 0.02 0.02 74 1011.9
20260506173532 80 0 0.0 0.0 0.00 0.02 0.02 74 1011.9
20260506173050 79 0 0.0 0.0 0.00 0.02 0.02 76 1011.9
20260506172532 79 0 0.0 2.0 0.00 0.02 0.02 76 1012.0
20260506172036 78 0 0.0 2.0 0.00 0.02 0.02 76 1012.0
20260506171543 78 145 0.0 2.0 0.00 0.02 0.02 77 1011.9
20260506171033 78 0 0.0 1.0 0.00 0.02 0.02 78 1012.0
20260506170531 78 0 0.0 2.0 0.00 0.02 0.02 78 1012.0
20260506165532 77 0 0.0 0.0 0.00 0.02 0.02 80 1012.0
20260506165032 77 0 0.0 0.0 0.01 0.02 0.02 80 1012.0
20260506164541 77 0 0.0 0.0 0.01 0.02 0.02 80 1012.0
20260506164035 77 0 0.0 0.0 0.01 0.02 0.02 79 1012.0
20260506163533 77 0 0.0 1.0 0.02 0.02 0.02 79 1012.0
20260506163058 77 0 0.0 1.0 0.02 0.02 0.02 79 1011.9
20260506162538 77 0 0.0 1.0 0.02 0.02 0.02 80 1011.8
20260506162036 77 0 0.0 0.0 0.02 0.02 0.02 81 1011.9
20260506161547 77 0 0.0 0.0 0.02 0.02 0.02 83 1011.9
20260506161033 76 0 0.0 0.0 0.02 0.02 0.02 84 1011.8
20260506160532 75 0 0.0 0.0 0.02 0.02 0.02 85 1011.8
20260506160046 75 0 0.0 0.0 0.02 0.02 0.02 85 1011.6
20260506155531 75 0 0.0 0.0 0.02 0.02 0.02 85 1011.7
20260506155032 75 0 0.0 0.0 0.01 0.01 0.01 85 1011.7
20260506154546 75 0 0.0 0.0 0.01 0.01 0.01 84 1011.7
20260506154033 75 0 0.0 0.0 0.01 0.01 0.01 83 1011.6
20260506153532 75 0 0.0 0.0 0.00 0.00 0.00 82 1011.6
20260506153041 75 0 0.0 0.0 0.00 0.00 0.00 82 1011.5
20260506152534 76 0 0.0 0.0 0.00 0.00 0.00 81 1011.5
20260506152033 76 0 0.0 0.0 0.00 0.00 0.00 81 1011.3
20260506151544 76 0 0.0 0.0 0.00 0.00 0.00 80 1011.2
20260506151032 76 0 0.0 0.0 0.00 0.00 0.00 81 1011.2
20260506150533 76 0 0.0 0.0 0.00 0.00 0.00 80 1011.1
20260506150049 76 0 0.0 0.0 0.00 0.00 0.00 81 1011.0
20260506145537 76 0 0.0 0.0 0.00 0.00 0.00 80 1011.0
20260506145033 76 0 0.0 0.0 0.00 0.00 0.00 81 1010.9
20260506144558 76 0 0.0 0.0 0.00 0.00 0.00 81 1011.0
20260506144032 76 0 0.0 0.0 0.00 0.00 0.00 81 1011.0
20260506143532 76 0 0.0 0.0 0.00 0.00 0.00 81 1010.8
20260506143045 76 0 0.0 1.0 0.00 0.00 0.00 80 1010.8
20260506142532 76 0 0.0 2.0 0.00 0.00 0.00 81 1010.7
20260506142034 76 0 0.0 2.0 0.00 0.00 0.00 81 1010.5
20260506141545 76 0 0.0 1.0 0.00 0.00 0.00 81 1010.6
20260506141034 75 0 0.0 1.0 0.00 0.00 0.00 81 1010.6
20260506140536 75 0 0.0 1.0 0.00 0.00 0.00 82 1010.4
20260506140045 75 0 0.0 2.0 0.00 0.00 0.00 82 1010.3
20260506135531 75 0 0.0 2.0 0.00 0.00 0.00 82 1010.0
20260506135032 75 0 0.0 0.0 0.00 0.00 0.00 83 1010.1
20260506134545 75 0 0.0 2.0 0.00 0.00 0.00 82 1009.8
20260506134035 75 0 0.0 2.0 0.00 0.00 0.00 82 1009.8
20260506133533 75 0 0.0 0.0 0.00 0.00 0.00 82 1009.7
20260506133044 75 0 0.0 0.0 0.00 0.00 0.00 82 1009.7
20260506132532 75 0 0.0 0.0 0.00 0.00 0.00 82 1009.7
20260506132035 75 0 0.0 0.0 0.00 0.00 0.00 82 1009.6
20260506131545 75 0 0.0 0.0 0.00 0.00 0.00 83 1009.6
20260506131031 74 0 0.0 1.0 0.00 0.00 0.00 83 1009.5
20260506130533 74 0 0.0 1.0 0.00 0.00 0.00 83 1009.4
20260506130047 74 0 0.0 0.0 0.00 0.00 0.00 83 1009.4
20260506125531 74 0 0.0 0.0 0.00 0.00 0.00 84 1009.3
20260506125033 74 0 0.0 0.0 0.00 0.00 0.00 84 1009.4
20260506124543 74 0 0.0 0.0 0.00 0.00 0.00 84 1009.4
20260506124032 74 0 0.0 0.0 0.00 0.00 0.00 84 1009.4
20260506123532 74 0 0.0 0.0 0.00 0.00 0.00 84 1009.3
20260506123043 74 0 0.0 0.0 0.00 0.00 0.00 84 1009.4
20260506122533 74 0 0.0 0.0 0.00 0.00 0.00 84 1009.4
20260506122032 74 0 0.0 0.0 0.00 0.00 0.00 84 1009.3
20260506121545 74 0 0.0 0.0 0.00 0.00 0.00 84 1009.4
20260506121032 74 0 0.0 0.0 0.00 0.00 0.00 84 1009.4
20260506120532 74 0 0.0 0.0 0.00 0.00 0.00 84 1009.4
20260506120046 74 0 0.0 0.0 0.00 0.00 0.00 84 1009.4
20260506115534 74 0 0.0 0.0 0.00 0.00 0.00 84 1009.3
20260506115031 74 0 0.0 0.0 0.00 0.00 0.00 84 1009.3
20260506114548 74 0 0.0 0.0 0.00 0.00 0.00 84 1009.3
20260506114032 74 0 0.0 0.0 0.00 0.00 0.00 84 1009.3
20260506113534 74 0 0.0 0.0 0.00 0.00 0.00 84 1009.4
20260506113045 74 0 0.0 0.0 0.00 0.00 0.00 84 1009.3
20260506112534 74 0 0.0 0.0 0.00 0.00 0.00 84 1009.3
20260506112031 74 0 0.0 0.0 0.00 0.00 0.00 83 1009.3
20260506111540 74 0 0.0 0.0 0.00 0.00 0.00 84 1009.4
20260506111031 74 0 0.0 0.0 0.00 0.00 0.00 83 1009.3
20260506110535 74 0 0.0 0.0 0.00 0.00 0.00 83 1009.4
20260506110044 74 0 0.0 0.0 0.00 0.00 0.00 83 1009.4
20260506105533 74 0 0.0 0.0 0.00 0.00 0.00 83 1009.3
20260506105033 74 0 0.0 0.0 0.00 0.00 0.00 83 1009.3
20260506104539 74 0 0.0 0.0 0.00 0.00 0.00 83 1009.3
20260506104031 74 0 0.0 0.0 0.00 0.00 0.00 83 1009.2
20260506103534 74 0 0.0 0.0 0.00 0.00 0.00 83 1009.1
20260506103049 74 0 0.0 0.0 0.00 0.00 0.00 83 1009.1
20260506102532 74 0 0.0 0.0 0.00 0.00 0.00 83 1009.2
20260506102032 74 0 0.0 0.0 0.00 0.00 0.00 83 1009.2
20260506101541 74 0 0.0 0.0 0.00 0.00 0.00 83 1009.1
20260506101032 74 0 0.0 0.0 0.00 0.00 0.00 83 1009.1
20260506100535 74 0 0.0 0.0 0.00 0.00 0.00 83 1009.1
20260506100038 74 0 0.0 0.0 0.00 0.00 0.00 83 1009.1
20260506095533 74 0 0.0 0.0 0.00 0.00 0.00 83 1009.1
20260506095033 74 0 0.0 0.0 0.00 0.00 0.00 83 1009.1
20260506094547 74 0 0.0 0.0 0.00 0.00 0.00 83 1009.1
20260506094032 74 0 0.0 0.0 0.00 0.00 0.00 84 1009.1
20260506093532 74 0 0.0 0.0 0.00 0.00 0.00 83 1009.1
20260506093047 74 0 0.0 0.0 0.00 0.00 0.00 83 1009.1
20260506092606 74 0 0.0 0.0 0.00 0.00 0.00 83 1009.1
20260506092034 74 0 0.0 0.0 0.00 0.00 0.00 83 1009.1
20260506091545 74 0 0.0 1.0 0.00 0.00 0.00 83 1008.9
20260506091032 74 0 0.0 1.0 0.00 0.00 0.00 83 1009.0
20260506090533 74 0 0.0 3.0 0.00 0.00 0.00 83 1009.1
20260506090050 74 0 0.0 3.0 0.00 0.00 0.00 83 1009.1
20260506085535 74 0 0.0 3.0 0.00 0.00 0.00 83 1009.1
20260506085035 74 0 0.0 3.0 0.00 0.00 0.00 83 1009.1
20260506084558 74 78 0.0 1.0 0.00 0.00 0.00 82 1009.2
20260506084035 75 0 0.0 2.0 0.00 0.00 0.00 82 1009.2
20260506083535 75 0 0.0 2.0 0.00 0.00 0.00 82 1009.2
20260506083044 75 0 0.0 2.0 0.00 0.00 0.00 82 1009.2
20260506082534 75 0 0.0 2.0 0.00 0.00 0.00 82 1009.2
20260506082032 75 0 0.0 2.0 0.00 0.00 0.00 82 1009.2
20260506081542 75 0 0.0 2.0 0.00 0.00 0.00 82 1009.3
20260506081033 75 0 0.0 2.0 0.00 0.00 0.00 82 1009.4
20260506080532 75 0 0.0 2.0 0.00 0.00 0.00 81 1009.3
20260506073054 75 0 0.0 2.0 0.00 0.00 0.00 81 1009.4
20260506072534 75 0 0.0 2.0 0.00 0.00 0.00 81 1009.4
20260506072032 75 0 0.0 1.0 0.00 0.00 0.00 81 1009.4
20260506071543 75 0 0.0 1.0 0.00 0.00 0.00 81 1009.3
20260506071039 75 321 0.0 1.0 0.00 0.00 0.00 81 1009.5
20260506070535 75 0 0.0 1.0 0.00 0.00 0.00 81 1009.7
20260506062034 76 0 0.0 0.0 0.00 0.00 0.00 81 1009.5
20260506061554 76 0 0.0 0.0 0.00 0.00 0.00 81 1009.6
20260506061035 76 0 0.0 2.0 0.00 0.00 0.00 81 1009.5
20260506060534 76 0 0.0 2.0 0.00 0.00 0.00 81 1009.5
20260506051032 76 0 0.0 0.0 0.00 0.00 0.00 81 1009.4
20260506050534 76 0 0.0 0.0 0.00 0.00 0.00 81 1009.5
20260506045033 76 0 0.0 2.0 0.00 0.00 0.00 80 1009.3
20260506044551 76 0 0.0 3.0 0.00 0.00 0.00 80 1009.4
20260506044033 76 0 0.0 3.0 0.00 0.00 0.00 80 1009.4
20260506043532 76 0 0.0 0.0 0.00 0.00 0.00 80 1009.3
20260506043043 76 0 0.0 0.0 0.00 0.00 0.00 80 1009.3
20260506042532 77 0 0.0 1.0 0.00 0.00 0.00 79 1009.3
20260506042032 77 0 0.0 3.0 0.00 0.00 0.00 79 1009.3
20260506041540 77 0 0.0 3.0 0.00 0.00 0.00 79 1009.1
20260506041031 77 0 0.0 2.0 0.00 0.00 0.00 79 1009.0
20260506040532 77 0 0.0 2.0 0.00 0.00 0.00 78 1009.0
20260506040045 77 0 0.0 2.0 0.00 0.00 0.00 78 1009.0
20260506035537 77 0 0.0 3.0 0.00 0.00 0.00 78 1008.8
20260506035033 78 0 0.0 3.0 0.00 0.00 0.00 77 1008.9
20260506034543 78 97 0.0 3.0 0.00 0.00 0.00 77 1008.9
20260506034033 78 247 0.0 4.0 0.00 0.00 0.00 77 1008.8
20260506033533 78 0 0.0 6.0 0.00 0.00 0.00 77 1008.7
20260506033049 78 63 0.0 6.0 0.00 0.00 0.00 76 1008.6
20260506032532 79 0 0.0 4.0 0.00 0.00 0.00 76 1008.6
20260506032032 79 0 0.0 4.0 0.00 0.00 0.00 76 1008.6
20260506031549 79 0 0.0 3.0 0.00 0.00 0.00 76 1008.6
20260506031035 79 0 0.0 3.0 0.00 0.00 0.00 76 1008.5
20260506030531 79 0 0.0 2.0 0.00 0.00 0.00 75 1008.5
20260506030047 80 0 0.0 5.0 0.00 0.00 0.00 75 1008.3
20260506025532 80 0 0.0 5.0 0.00 0.00 0.00 75 1008.3
20260506025036 80 0 0.0 5.0 0.00 0.00 0.00 75 1008.2
20260506024557 80 0 1.0 5.0 0.00 0.00 0.00 75 1008.0
20260506024032 80 136 0.0 3.0 0.00 0.00 0.00 74 1007.9
20260506023536 80 0 0.0 2.0 0.00 0.00 0.00 74 1007.9
20260506023042 81 303 0.0 2.0 0.00 0.00 0.00 73 1007.7
20260506022532 81 68 0.0 5.0 0.00 0.00 0.00 72 1007.8
20260506022034 81 0 0.0 7.0 0.00 0.00 0.00 71 1007.8
20260506021602 82 0 0.0 7.0 0.00 0.00 0.00 71 1007.7
20260506021033 82 84 0.0 2.0 0.00 0.00 0.00 70 1007.7
20260506020533 82 0 0.0 2.0 0.00 0.00 0.00 69 1007.6
20260506020044 82 0 0.0 2.0 0.00 0.00 0.00 69 1007.6
20260506015532 83 0 0.0 2.0 0.00 0.00 0.00 68 1007.5